Time,TemperatureF,DewpointF,PressureIn,WindDirection,WindDirectionDegrees,WindSpeedMPH,WindSpeedGustMPH,Humidity,HourlyPrecipIn,Conditions,Clouds,dailyrainin,SoftwareType,DateUTC
2013-03-26 00:00:00,31.9,29.8,30.05,NNW,329,1.0,11.0,92,0.00,,---,0.00,VWS V14.01,2013-03-26 05:00:00,
2013-03-26 00:05:00,31.8,29.8,30.06,West,271,3.0,8.0,92,0.00,,---,0.00,VWS V14.01,2013-03-26 05:05:00,
2013-03-26 00:10:00,31.8,29.8,30.06,WNW,290,2.0,11.0,92,0.00,,---,0.00,VWS V14.01,2013-03-26 05:10:00,
2013-03-26 00:15:00,31.7,29.6,30.06,WNW,294,2.0,11.0,92,0.00,,---,0.00,VWS V14.01,2013-03-26 05:15:00,
2013-03-26 00:20:00,31.7,29.6,30.06,NW,322,4.0,11.0,92,0.00,,---,0.00,VWS V14.01,2013-03-26 05:20:00,
2013-03-26 00:25:00,31.7,29.4,30.06,WNW,286,4.0,11.0,91,0.00,,---,0.00,VWS V14.01,2013-03-26 05:25:00,
2013-03-26 00:30:00,31.7,29.6,30.06,NW,320,5.0,11.0,92,0.00,,---,0.00,VWS V14.01,2013-03-26 05:30:00,
2013-03-26 00:35:00,31.6,29.3,30.06,NW,323,3.0,13.0,91,0.00,,---,0.00,VWS V14.01,2013-03-26 05:35:00,
2013-03-26 00:40:00,31.5,29.2,30.06,WNW,301,5.0,13.0,91,0.00,,---,0.00,VWS V14.01,2013-03-26 05:40:00,
2013-03-26 00:45:00,31.5,29.2,30.06,WNW,296,2.0,13.0,91,0.00,,---,0.00,VWS V14.01,2013-03-26 05:45:00,
2013-03-26 00:50:00,31.5,29.2,30.06,WNW,288,3.0,13.0,91,0.00,,---,0.00,VWS V14.01,2013-03-26 05:50:00,
2013-03-26 00:55:00,31.5,29.2,30.06,WNW,298,2.0,13.0,91,0.00,,---,0.00,VWS V14.01,2013-03-26 05:55:00,
2013-03-26 01:00:00,31.5,29.2,30.06,WNW,301,6.0,13.0,91,0.00,,---,0.00,VWS V14.01,2013-03-26 06:00:00,
2013-03-26 01:05:00,31.4,29.1,30.06,NW,310,3.0,6.0,91,0.00,,---,0.00,VWS V14.01,2013-03-26 06:05:00,
2013-03-26 01:10:00,31.4,29.1,30.06,West,265,2.0,6.0,91,0.00,,---,0.00,VWS V14.01,2013-03-26 06:10:00,
2013-03-26 01:15:00,31.4,29.1,30.06,West,274,3.0,7.0,91,0.00,,---,0.00,VWS V14.01,2013-03-26 06:15:00,
2013-03-26 01:20:00,31.4,29.1,30.06,West,281,2.0,7.0,91,0.00,,---,0.00,VWS V14.01,2013-03-26 06:20:00,
2013-03-26 01:25:00,31.4,29.1,30.06,WSW,250,2.0,7.0,91,0.00,,---,0.00,VWS V14.01,2013-03-26 06:25:00,
2013-03-26 01:30:00,31.4,29.1,30.06,WNW,285,4.0,7.0,91,0.00,,---,0.00,VWS V14.01,2013-03-26 06:30:00,
2013-03-26 01:35:00,31.4,29.1,30.06,WNW,296,5.0,9.0,91,0.00,,---,0.00,VWS V14.01,2013-03-26 06:35:00,
2013-03-26 01:40:00,31.4,29.1,30.06,NNW,329,2.0,9.0,91,0.00,,---,0.00,VWS V14.01,2013-03-26 06:40:00,
2013-03-26 01:45:00,31.4,29.1,30.06,WNW,300,1.0,9.0,91,0.00,,---,0.00,VWS V14.01,2013-03-26 06:45:00,
2013-03-26 01:50:00,31.3,29.0,30.06,WNW,292,6.0,9.0,91,0.00,,---,0.00,VWS V14.01,2013-03-26 06:50:00,
2013-03-26 01:55:00,31.3,29.0,30.06,WNW,286,2.0,9.0,91,0.00,,---,0.00,VWS V14.01,2013-03-26 06:55:00,
2013-03-26 02:00:00,31.3,29.0,30.06,West,281,1.0,9.0,91,0.00,,---,0.00,VWS V14.01,2013-03-26 07:00:00,
2013-03-26 02:05:00,31.3,29.0,30.06,WNW,288,3.0,6.0,91,0.00,,---,0.00,VWS V14.01,2013-03-26 07:05:00,
2013-03-26 02:10:00,31.3,29.0,30.06,West,269,2.0,10.0,91,0.00,,---,0.00,VWS V14.01,2013-03-26 07:10:00,
2013-03-26 02:15:00,31.3,29.0,30.06,WNW,296,2.0,10.0,91,0.00,,---,0.00,VWS V14.01,2013-03-26 07:15:00,
2013-03-26 02:20:00,31.3,29.0,30.06,WNW,296,5.0,10.0,91,0.00,,---,0.00,VWS V14.01,2013-03-26 07:20:00,
2013-03-26 02:25:00,31.2,28.9,30.06,West,279,4.0,10.0,91,0.00,,---,0.00,VWS V14.01,2013-03-26 07:25:00,
2013-03-26 02:30:00,31.2,28.9,30.06,WNW,284,7.0,10.0,91,0.00,,---,0.00,VWS V14.01,2013-03-26 07:30:00,
2013-03-26 02:35:00,31.1,28.8,30.06,WNW,294,3.0,6.0,91,0.00,,---,0.00,VWS V14.01,2013-03-26 07:35:00,
2013-03-26 02:40:00,31.1,28.8,30.06,WNW,289,3.0,6.0,91,0.00,,---,0.00,VWS V14.01,2013-03-26 07:40:00,
2013-03-26 02:45:00,31.2,28.9,30.06,West,273,3.0,6.0,91,0.00,,---,0.00,VWS V14.01,2013-03-26 07:45:00,
2013-03-26 02:50:00,31.2,28.9,30.06,WNW,294,1.0,10.0,91,0.00,,---,0.00,VWS V14.01,2013-03-26 07:50:00,
2013-03-26 02:55:00,31.1,28.8,30.06,West,271,4.0,10.0,91,0.00,,---,0.00,VWS V14.01,2013-03-26 07:55:00,
2013-03-26 03:00:00,31.1,28.8,30.06,WNW,298,3.0,10.0,91,0.00,,---,0.00,VWS V14.01,2013-03-26 08:00:00,
2013-03-26 03:05:00,31.1,28.8,30.07,West,275,1.0,6.0,91,0.00,,---,0.00,VWS V14.01,2013-03-26 08:05:00,
2013-03-26 03:10:00,31.1,28.8,30.07,West,261,3.0,9.0,91,0.00,,---,0.00,VWS V14.01,2013-03-26 08:10:00,
2013-03-26 03:15:00,31.2,29.1,30.07,West,266,4.0,9.0,92,0.00,,---,0.00,VWS V14.01,2013-03-26 08:15:00,
2013-03-26 03:20:00,31.2,29.1,30.06,NW,305,3.0,9.0,92,0.00,,---,0.00,VWS V14.01,2013-03-26 08:20:00,
2013-03-26 03:25:00,31.1,29.0,30.06,WNW,286,4.0,9.0,92,0.00,,---,0.00,VWS V14.01,2013-03-26 08:25:00,
2013-03-26 03:30:00,31.1,29.0,30.06,NNW,327,4.0,9.0,92,0.00,,---,0.00,VWS V14.01,2013-03-26 08:30:00,
2013-03-26 03:35:00,31.2,29.1,30.06,West,272,3.0,5.0,92,0.00,,---,0.00,VWS V14.01,2013-03-26 08:35:00,
2013-03-26 03:40:00,31.1,29.0,30.06,West,279,4.0,7.0,92,0.00,,---,0.00,VWS V14.01,2013-03-26 08:40:00,
2013-03-26 03:45:00,31.2,29.1,30.06,West,265,5.0,7.0,92,0.00,,---,0.00,VWS V14.01,2013-03-26 08:45:00,
2013-03-26 03:50:00,31.1,29.0,30.06,West,279,2.0,7.0,92,0.00,,---,0.00,VWS V14.01,2013-03-26 08:50:00,
2013-03-26 03:55:00,31.1,29.0,30.06,WNW,285,4.0,12.0,92,0.00,,---,0.00,VWS V14.01,2013-03-26 08:55:00,
2013-03-26 04:00:00,31.1,29.0,30.06,West,275,5.0,12.0,92,0.00,,---,0.00,VWS V14.01,2013-03-26 09:00:00,
2013-03-26 04:05:00,31.2,29.1,30.06,West,281,2.0,7.0,92,0.00,,---,0.00,VWS V14.01,2013-03-26 09:05:00,
2013-03-26 04:10:00,31.2,28.9,30.06,WNW,285,3.0,10.0,91,0.00,,---,0.00,VWS V14.01,2013-03-26 09:10:00,
2013-03-26 04:15:00,31.1,28.8,30.06,WNW,285,4.0,10.0,91,0.00,,---,0.00,VWS V14.01,2013-03-26 09:15:00,
2013-03-26 04:20:00,31.1,28.8,30.07,West,274,3.0,10.0,91,0.00,,---,0.00,VWS V14.01,2013-03-26 09:20:00,
2013-03-26 04:25:00,31.1,28.8,30.07,WNW,282,2.0,10.0,91,0.00,,---,0.00,VWS V14.01,2013-03-26 09:25:00,
2013-03-26 04:30:00,31.1,28.8,30.07,WNW,282,4.0,10.0,91,0.00,,---,0.00,VWS V14.01,2013-03-26 09:30:00,
2013-03-26 04:35:00,31.1,28.8,30.07,West,263,2.0,6.0,91,0.00,,---,0.00,VWS V14.01,2013-03-26 09:35:00,
2013-03-26 04:40:00,31.1,28.8,30.07,WNW,291,5.0,6.0,91,0.00,,---,0.00,VWS V14.01,2013-03-26 09:40:00,
2013-03-26 04:45:00,31.1,28.8,30.07,West,275,4.0,6.0,91,0.00,,---,0.00,VWS V14.01,2013-03-26 09:45:00,
2013-03-26 04:50:00,31.0,28.7,30.07,West,270,2.0,7.0,91,0.00,,---,0.00,VWS V14.01,2013-03-26 09:50:00,
2013-03-26 04:55:00,31.0,28.7,30.07,WNW,294,3.0,7.0,91,0.00,,---,0.00,VWS V14.01,2013-03-26 09:55:00,
2013-03-26 05:00:00,31.0,28.7,30.07,West,273,5.0,7.0,91,0.00,,---,0.00,VWS V14.01,2013-03-26 10:00:00,
2013-03-26 05:05:00,31.0,28.7,30.07,West,262,3.0,7.0,91,0.00,,---,0.00,VWS V14.01,2013-03-26 10:05:00,
2013-03-26 05:10:00,31.0,28.7,30.07,West,276,3.0,7.0,91,0.00,,---,0.00,VWS V14.01,2013-03-26 10:10:00,
2013-03-26 05:15:00,30.9,28.6,30.07,West,277,5.0,7.0,91,0.00,,---,0.00,VWS V14.01,2013-03-26 10:15:00,
2013-03-26 05:20:00,30.9,28.6,30.08,West,275,4.0,7.0,91,0.00,,---,0.00,VWS V14.01,2013-03-26 10:20:00,
2013-03-26 05:25:00,30.8,28.5,30.08,WNW,302,4.0,7.0,91,0.00,,---,0.00,VWS V14.01,2013-03-26 10:25:00,
2013-03-26 05:30:00,30.8,28.5,30.08,West,277,3.0,7.0,91,0.00,,---,0.00,VWS V14.01,2013-03-26 10:30:00,
2013-03-26 05:35:00,30.7,28.4,30.08,WNW,300,3.0,5.0,91,0.00,,---,0.00,VWS V14.01,2013-03-26 10:35:00,
2013-03-26 05:40:00,30.7,28.4,30.08,WNW,292,2.0,7.0,91,0.00,,---,0.00,VWS V14.01,2013-03-26 10:40:00,
2013-03-26 05:45:00,30.6,28.0,30.08,WNW,295,2.0,7.0,90,0.00,,---,0.00,VWS V14.01,2013-03-26 10:45:00,
2013-03-26 05:50:00,30.6,28.0,30.08,WNW,287,3.0,7.0,90,0.00,,---,0.00,VWS V14.01,2013-03-26 10:50:00,
2013-03-26 05:55:00,30.5,27.9,30.08,West,266,3.0,7.0,90,0.00,,---,0.00,VWS V14.01,2013-03-26 10:55:00,
2013-03-26 06:00:00,30.5,27.9,30.08,WNW,291,3.0,7.0,90,0.00,,---,0.00,VWS V14.01,2013-03-26 11:00:00,
2013-03-26 06:05:00,30.5,27.9,30.09,WNW,285,3.0,4.0,90,0.00,,---,0.00,VWS V14.01,2013-03-26 11:05:00,
2013-03-26 06:10:00,30.4,27.8,30.09,WNW,288,2.0,5.0,90,0.00,,---,0.00,VWS V14.01,2013-03-26 11:10:00,
2013-03-26 06:15:00,30.4,27.8,30.09,WNW,300,2.0,6.0,90,0.00,,---,0.00,VWS V14.01,2013-03-26 11:15:00,
2013-03-26 06:20:00,30.3,27.7,30.09,West,276,2.0,6.0,90,0.00,,---,0.00,VWS V14.01,2013-03-26 11:20:00,
2013-03-26 06:25:00,30.3,27.7,30.09,WNW,287,2.0,6.0,90,0.00,,---,0.00,VWS V14.01,2013-03-26 11:25:00,
2013-03-26 06:30:00,30.3,27.7,30.09,WSW,252,2.0,6.0,90,0.00,,---,0.00,VWS V14.01,2013-03-26 11:30:00,
2013-03-26 06:35:00,30.3,27.7,30.10,West,277,2.0,4.0,90,0.00,,---,0.00,VWS V14.01,2013-03-26 11:35:00,
2013-03-26 06:40:00,30.3,27.7,30.10,West,276,1.0,4.0,90,0.00,,---,0.00,VWS V14.01,2013-03-26 11:40:00,
2013-03-26 06:45:00,30.3,27.7,30.10,WNW,282,3.0,5.0,90,0.00,,---,0.00,VWS V14.01,2013-03-26 11:45:00,
2013-03-26 06:50:00,30.3,27.7,30.10,WNW,286,3.0,5.0,90,0.00,,---,0.00,VWS V14.01,2013-03-26 11:50:00,
2013-03-26 06:55:00,30.4,27.8,30.10,West,268,3.0,5.0,90,0.00,,---,0.00,VWS V14.01,2013-03-26 11:55:00,
2013-03-26 07:00:00,30.4,27.8,30.10,WNW,284,2.0,5.0,90,0.00,,---,0.00,VWS V14.01,2013-03-26 12:00:00,
2013-03-26 07:05:00,30.4,27.5,30.11,West,281,3.0,4.0,89,0.00,,---,0.00,VWS V14.01,2013-03-26 12:05:00,
2013-03-26 07:10:00,30.5,27.6,30.11,WNW,286,0.0,5.0,89,0.00,,---,0.00,VWS V14.01,2013-03-26 12:10:00,
2013-03-26 07:15:00,30.5,27.6,30.11,West,276,1.0,5.0,89,0.00,,---,0.00,VWS V14.01,2013-03-26 12:15:00,
2013-03-26 07:20:00,30.5,27.6,30.11,WNW,282,1.0,5.0,89,0.00,,---,0.00,VWS V14.01,2013-03-26 12:20:00,
2013-03-26 07:25:00,30.5,27.6,30.11,WNW,282,3.0,5.0,89,0.00,,---,0.00,VWS V14.01,2013-03-26 12:25:00,
2013-03-26 07:30:00,30.6,27.8,30.11,West,281,0.0,5.0,89,0.00,,---,0.00,VWS V14.01,2013-03-26 12:30:00,
2013-03-26 07:35:00,30.7,27.9,30.12,West,281,0.0,3.0,89,0.00,,---,0.00,VWS V14.01,2013-03-26 12:35:00,
2013-03-26 07:40:00,30.7,27.9,30.12,West,269,0.0,4.0,89,0.00,,---,0.00,VWS V14.01,2013-03-26 12:40:00,
2013-03-26 07:45:00,30.8,28.0,30.12,WNW,296,4.0,5.0,89,0.00,,---,0.00,VWS V14.01,2013-03-26 12:45:00,
2013-03-26 07:50:00,30.9,27.8,30.13,West,281,1.0,6.0,88,0.00,,---,0.00,VWS V14.01,2013-03-26 12:50:00,
2013-03-26 07:55:00,31.0,27.9,30.13,WNW,294,3.0,6.0,88,0.00,,---,0.00,VWS V14.01,2013-03-26 12:55:00,
2013-03-26 08:00:00,31.1,28.0,30.13,West,278,1.0,6.0,88,0.00,,---,0.00,VWS V14.01,2013-03-26 13:00:00,
2013-03-26 08:05:00,31.1,28.0,30.14,West,281,3.0,9.0,88,0.00,,---,0.00,VWS V14.01,2013-03-26 13:05:00,
2013-03-26 08:10:00,31.2,27.8,30.14,WNW,288,3.0,9.0,87,0.00,,---,0.00,VWS V14.01,2013-03-26 13:10:00,
2013-03-26 08:15:00,31.3,27.9,30.14,NW,304,3.0,9.0,87,0.00,,---,0.00,VWS V14.01,2013-03-26 13:15:00,
2013-03-26 08:20:00,31.4,28.0,30.14,West,268,4.0,9.0,87,0.00,,---,0.00,VWS V14.01,2013-03-26 13:20:00,
2013-03-26 08:25:00,31.5,28.1,30.14,WNW,294,6.0,11.0,87,0.00,,---,0.00,VWS V14.01,2013-03-26 13:25:00,
2013-03-26 08:30:00,31.5,27.8,30.14,WNW,290,3.0,11.0,86,0.00,,---,0.00,VWS V14.01,2013-03-26 13:30:00,
2013-03-26 08:35:00,31.6,27.9,30.15,West,281,2.0,5.0,86,0.00,,---,0.00,VWS V14.01,2013-03-26 13:35:00,
2013-03-26 08:40:00,31.7,28.0,30.15,WNW,282,4.0,9.0,86,0.00,,---,0.00,VWS V14.01,2013-03-26 13:40:00,
2013-03-26 08:45:00,31.8,28.1,30.15,West,276,1.0,9.0,86,0.00,,---,0.00,VWS V14.01,2013-03-26 13:45:00,
2013-03-26 08:50:00,32.0,28.3,30.16,WNW,301,6.0,9.0,86,0.00,,---,0.00,VWS V14.01,2013-03-26 13:50:00,
2013-03-26 08:55:00,32.1,28.1,30.16,WSW,257,6.0,10.0,85,0.00,,---,0.00,VWS V14.01,2013-03-26 13:55:00,
2013-03-26 09:00:00,32.2,28.2,30.16,WNW,287,3.0,10.0,85,0.00,,---,0.00,VWS V14.01,2013-03-26 14:00:00,
2013-03-26 09:05:00,32.4,28.4,30.16,WNW,286,2.0,8.0,85,0.00,,---,0.00,VWS V14.01,2013-03-26 14:05:00,
2013-03-26 09:10:00,32.5,28.5,30.16,WNW,290,3.0,8.0,85,0.01,,---,0.01,VWS V14.01,2013-03-26 14:10:00,
2013-03-26 09:15:00,32.7,28.7,30.16,WNW,294,3.0,8.0,85,0.01,,---,0.01,VWS V14.01,2013-03-26 14:15:00,
2013-03-26 09:20:00,32.9,28.9,30.16,NW,315,5.0,10.0,85,0.01,,---,0.01,VWS V14.01,2013-03-26 14:20:00,
2013-03-26 09:25:00,32.9,28.6,30.16,WSW,257,3.0,10.0,84,0.01,,---,0.01,VWS V14.01,2013-03-26 14:25:00,
2013-03-26 09:30:00,33.2,28.9,30.16,WNW,292,5.0,10.0,84,0.01,,---,0.01,VWS V14.01,2013-03-26 14:30:00,
2013-03-26 09:35:00,33.4,29.1,30.17,WNW,291,5.0,7.0,84,0.01,,---,0.01,VWS V14.01,2013-03-26 14:35:00,
2013-03-26 09:40:00,33.5,29.2,30.17,WNW,292,0.0,7.0,84,0.01,,---,0.01,VWS V14.01,2013-03-26 14:40:00,
2013-03-26 09:45:00,33.9,29.6,30.17,West,276,4.0,7.0,84,0.01,,---,0.01,VWS V14.01,2013-03-26 14:45:00,
2013-03-26 09:50:00,34.1,29.5,30.17,WNW,285,3.0,8.0,83,0.01,,---,0.01,VWS V14.01,2013-03-26 14:50:00,
2013-03-26 09:55:00,34.2,29.3,30.17,West,269,5.0,11.0,82,0.01,,---,0.01,VWS V14.01,2013-03-26 14:55:00,
2013-03-26 10:00:00,34.4,29.5,30.17,WNW,299,4.0,11.0,82,0.01,,---,0.01,VWS V14.01,2013-03-26 15:00:00,
2013-03-26 10:05:00,34.4,29.8,30.18,WNW,297,5.0,6.0,83,0.01,,---,0.01,VWS V14.01,2013-03-26 15:05:00,
2013-03-26 10:10:00,34.4,29.5,30.18,WSW,243,4.0,6.0,82,0.01,,---,0.01,VWS V14.01,2013-03-26 15:10:00,
2013-03-26 10:15:00,34.6,29.7,30.18,WNW,302,4.0,10.0,82,0.01,,---,0.01,VWS V14.01,2013-03-26 15:15:00,
2013-03-26 10:20:00,34.9,29.7,30.18,NNE,26,7.0,10.0,81,0.01,,---,0.01,VWS V14.01,2013-03-26 15:20:00,
2013-03-26 10:25:00,35.1,29.6,30.18,NW,309,1.0,11.0,80,0.01,,---,0.01,VWS V14.01,2013-03-26 15:25:00,
2013-03-26 10:30:00,35.3,29.8,30.18,WSW,255,8.0,11.0,80,0.01,,---,0.01,VWS V14.01,2013-03-26 15:30:00,
2013-03-26 10:35:00,35.6,29.4,30.18,NW,308,9.0,11.0,78,0.00,,---,0.01,VWS V14.01,2013-03-26 15:35:00,
2013-03-26 10:40:00,35.9,29.7,30.18,WNW,303,4.0,11.0,78,0.00,,---,0.01,VWS V14.01,2013-03-26 15:40:00,
2013-03-26 10:45:00,36.4,29.6,30.18,NW,304,7.0,11.0,76,0.00,,---,0.01,VWS V14.01,2013-03-26 15:45:00,
2013-03-26 10:50:00,36.3,28.8,30.18,West,271,4.0,13.0,74,0.00,,---,0.01,VWS V14.01,2013-03-26 15:50:00,
2013-03-26 10:55:00,36.4,29.2,30.18,NW,305,10.0,13.0,75,0.00,,---,0.01,VWS V14.01,2013-03-26 15:55:00,
2013-03-26 11:00:00,36.6,28.8,30.18,North,5,4.0,13.0,73,0.00,,---,0.01,VWS V14.01,2013-03-26 16:00:00,
2013-03-26 11:05:00,36.9,29.1,30.18,North,11,3.0,5.0,73,0.00,,---,0.01,VWS V14.01,2013-03-26 16:05:00,
2013-03-26 11:10:00,37.2,29.0,30.18,NNW,345,3.0,9.0,72,0.00,,---,0.01,VWS V14.01,2013-03-26 16:10:00,
2013-03-26 11:15:00,37.6,29.4,30.18,WNW,292,3.0,9.0,72,0.00,,---,0.01,VWS V14.01,2013-03-26 16:15:00,
2013-03-26 11:20:00,37.8,28.9,30.18,NNW,347,4.0,9.0,70,0.00,,---,0.01,VWS V14.01,2013-03-26 16:20:00,
2013-03-26 11:25:00,37.8,29.3,30.18,NW,325,3.0,9.0,71,0.00,,---,0.01,VWS V14.01,2013-03-26 16:25:00,
2013-03-26 11:30:00,37.9,28.6,30.18,NNE,30,0.0,11.0,69,0.00,,---,0.01,VWS V14.01,2013-03-26 16:30:00,
2013-03-26 11:35:00,38.2,28.9,30.19,North,355,6.0,12.0,69,0.00,,---,0.01,VWS V14.01,2013-03-26 16:35:00,
2013-03-26 11:40:00,38.4,28.8,30.19,NNE,13,4.0,16.0,68,0.00,,---,0.01,VWS V14.01,2013-03-26 16:40:00,
2013-03-26 11:45:00,38.7,29.1,30.19,WNW,302,4.0,16.0,68,0.00,,---,0.01,VWS V14.01,2013-03-26 16:45:00,
2013-03-26 11:50:00,38.9,28.9,30.19,North,11,4.0,16.0,67,0.00,,---,0.01,VWS V14.01,2013-03-26 16:50:00,
2013-03-26 11:55:00,38.8,28.1,30.19,WNW,296,13.0,16.0,65,0.00,,---,0.01,VWS V14.01,2013-03-26 16:55:00,
2013-03-26 12:00:00,38.8,28.4,30.19,NNW,344,1.0,16.0,66,0.00,,---,0.01,VWS V14.01,2013-03-26 17:00:00,
2013-03-26 12:05:00,39.1,29.1,30.19,NW,309,0.0,7.0,67,0.00,,---,0.01,VWS V14.01,2013-03-26 17:05:00,
2013-03-26 12:10:00,39.5,28.7,30.19,WNW,297,3.0,9.0,65,0.00,,---,0.01,VWS V14.01,2013-03-26 17:10:00,
2013-03-26 12:15:00,39.7,29.7,30.19,NNW,331,6.0,9.0,67,0.00,,---,0.01,VWS V14.01,2013-03-26 17:15:00,
2013-03-26 12:20:00,39.5,28.4,30.19,West,276,6.0,11.0,64,0.00,,---,0.01,VWS V14.01,2013-03-26 17:20:00,
2013-03-26 12:25:00,39.1,28.3,30.19,North,355,3.0,11.0,65,0.00,,---,0.01,VWS V14.01,2013-03-26 17:25:00,
2013-03-26 12:30:00,38.9,28.1,30.19,North,5,3.0,11.0,65,0.00,,---,0.01,VWS V14.01,2013-03-26 17:30:00,
2013-03-26 12:35:00,39.0,28.2,30.19,NW,323,2.0,12.0,65,0.00,,---,0.01,VWS V14.01,2013-03-26 17:35:00,
2013-03-26 12:40:00,39.0,27.9,30.19,WNW,301,3.0,12.0,64,0.00,,---,0.01,VWS V14.01,2013-03-26 17:40:00,
2013-03-26 12:45:00,39.1,28.3,30.19,NW,319,6.0,12.0,65,0.00,,---,0.01,VWS V14.01,2013-03-26 17:45:00,
2013-03-26 12:50:00,39.0,28.2,30.19,WNW,288,7.0,13.0,65,0.00,,---,0.01,VWS V14.01,2013-03-26 17:50:00,
2013-03-26 12:55:00,39.0,28.2,30.19,NW,306,1.0,13.0,65,0.00,,---,0.01,VWS V14.01,2013-03-26 17:55:00,
2013-03-26 13:01:00,39.4,28.6,30.19,NW,314,5.0,13.0,65,0.00,,---,0.01,VWS V14.01,2013-03-26 18:01:00,
2013-03-26 13:06:00,39.7,28.5,30.19,West,267,5.0,11.0,64,0.00,,---,0.01,VWS V14.01,2013-03-26 18:06:00,
2013-03-26 13:11:00,40.2,28.6,30.19,North,355,9.0,11.0,63,0.00,,---,0.01,VWS V14.01,2013-03-26 18:11:00,
2013-03-26 13:16:00,39.9,28.0,30.19,North,11,7.0,12.0,62,0.00,,---,0.01,VWS V14.01,2013-03-26 18:16:00,
2013-03-26 13:21:00,39.8,27.9,30.19,WNW,301,3.0,12.0,62,0.00,,---,0.01,VWS V14.01,2013-03-26 18:21:00,
2013-03-26 13:26:00,39.8,28.2,30.19,WNW,292,5.0,12.0,63,0.00,,---,0.01,VWS V14.01,2013-03-26 18:26:00,
2013-03-26 13:31:00,39.6,28.1,30.19,WSW,249,1.0,12.0,63,0.00,,---,0.01,VWS V14.01,2013-03-26 18:31:00,
2013-03-26 13:36:00,39.7,28.5,30.19,WNW,284,2.0,6.0,64,0.00,,---,0.01,VWS V14.01,2013-03-26 18:36:00,
2013-03-26 13:41:00,39.9,28.0,30.19,NW,306,4.0,10.0,62,0.00,,---,0.01,VWS V14.01,2013-03-26 18:41:00,
2013-03-26 13:46:00,40.3,27.9,30.19,WNW,296,4.0,10.0,61,0.00,,---,0.01,VWS V14.01,2013-03-26 18:46:00,
2013-03-26 13:51:00,40.6,27.8,30.19,West,274,4.0,12.0,60,0.00,,---,0.01,VWS V14.01,2013-03-26 18:51:00,
2013-03-26 13:56:00,40.7,27.9,30.19,West,275,10.0,12.0,60,0.00,,---,0.01,VWS V14.01,2013-03-26 18:56:00,
2013-03-26 14:01:00,40.9,27.7,30.19,NNE,15,1.0,12.0,59,0.00,,---,0.01,VWS V14.01,2013-03-26 19:01:00,
2013-03-26 14:06:00,41.3,28.5,30.19,NW,314,5.0,11.0,60,0.00,,---,0.01,VWS V14.01,2013-03-26 19:06:00,
2013-03-26 14:11:00,41.5,27.4,30.19,NNW,343,5.0,13.0,57,0.00,,---,0.01,VWS V14.01,2013-03-26 19:11:00,
2013-03-26 14:16:00,41.4,27.8,30.19,WNW,294,5.0,13.0,58,0.00,,---,0.01,VWS V14.01,2013-03-26 19:16:00,
2013-03-26 14:21:00,41.2,28.4,30.18,WNW,285,4.0,13.0,60,0.00,,---,0.01,VWS V14.01,2013-03-26 19:21:00,
2013-03-26 14:26:00,41.0,28.2,30.18,WSW,240,5.0,14.0,60,0.00,,---,0.01,VWS V14.01,2013-03-26 19:26:00,
2013-03-26 14:31:00,40.8,28.4,30.18,West,263,6.0,14.0,61,0.00,,---,0.01,VWS V14.01,2013-03-26 19:31:00,
2013-03-26 14:36:00,41.0,27.8,30.18,North,355,4.0,11.0,59,0.00,,---,0.01,VWS V14.01,2013-03-26 19:36:00,
2013-03-26 14:41:00,41.2,28.0,30.18,NW,313,2.0,12.0,59,0.00,,---,0.01,VWS V14.01,2013-03-26 19:41:00,
2013-03-26 14:46:00,41.3,28.1,30.19,WNW,289,3.0,12.0,59,0.00,,---,0.01,VWS V14.01,2013-03-26 19:46:00,
2013-03-26 14:51:00,41.3,28.5,30.19,West,264,7.0,12.0,60,0.00,,---,0.01,VWS V14.01,2013-03-26 19:51:00,
2013-03-26 14:56:00,40.8,28.0,30.19,WNW,289,6.0,12.0,60,0.00,,---,0.01,VWS V14.01,2013-03-26 19:56:00,
2013-03-26 15:01:00,40.6,28.2,30.18,West,260,6.0,12.0,61,0.00,,---,0.01,VWS V14.01,2013-03-26 20:01:00,
2013-03-26 15:06:00,40.7,27.9,30.18,West,278,5.0,11.0,60,0.00,,---,0.01,VWS V14.01,2013-03-26 20:06:00,
2013-03-26 15:11:00,40.6,27.8,30.18,WNW,282,2.0,11.0,60,0.00,,---,0.01,VWS V14.01,2013-03-26 20:11:00,
2013-03-26 15:16:00,40.6,27.8,30.18,WNW,287,6.0,12.0,60,0.00,,---,0.01,VWS V14.01,2013-03-26 20:16:00,
2013-03-26 15:21:00,40.7,28.3,30.18,West,264,4.0,12.0,61,0.00,,---,0.01,VWS V14.01,2013-03-26 20:21:00,
2013-03-26 15:26:00,40.7,28.3,30.18,West,276,6.0,12.0,61,0.00,,---,0.01,VWS V14.01,2013-03-26 20:26:00,
2013-03-26 15:31:00,40.9,28.1,30.18,WNW,292,9.0,12.0,60,0.00,,---,0.01,VWS V14.01,2013-03-26 20:31:00,
2013-03-26 15:36:00,41.1,28.3,30.18,WNW,297,10.0,14.0,60,0.00,,---,0.01,VWS V14.01,2013-03-26 20:36:00,
2013-03-26 15:41:00,40.9,27.7,30.18,West,267,9.0,14.0,59,0.00,,---,0.01,VWS V14.01,2013-03-26 20:41:00,
2013-03-26 15:46:00,40.7,27.9,30.18,West,261,5.0,14.0,60,0.00,,---,0.01,VWS V14.01,2013-03-26 20:46:00,
2013-03-26 15:51:00,40.9,28.1,30.18,WNW,284,0.0,14.0,60,0.00,,---,0.01,VWS V14.01,2013-03-26 20:51:00,
2013-03-26 15:56:00,41.1,27.5,30.18,WNW,292,5.0,14.0,58,0.00,,---,0.01,VWS V14.01,2013-03-26 20:56:00,
2013-03-26 16:01:00,41.1,27.9,30.18,WNW,292,3.0,14.0,59,0.00,,---,0.01,VWS V14.01,2013-03-26 21:01:00,
2013-03-26 16:06:00,41.0,27.8,30.18,West,273,6.0,6.0,59,0.00,,---,0.01,VWS V14.01,2013-03-26 21:06:00,
2013-03-26 16:11:00,41.1,27.9,30.18,West,267,2.0,9.0,59,0.00,,---,0.01,VWS V14.01,2013-03-26 21:11:00,
2013-03-26 16:16:00,41.1,27.9,30.18,WNW,301,8.0,11.0,59,0.00,,---,0.01,VWS V14.01,2013-03-26 21:16:00,
2013-03-26 16:21:00,41.0,27.4,30.18,WNW,294,7.0,14.0,58,0.00,,---,0.01,VWS V14.01,2013-03-26 21:21:00,
2013-03-26 16:25:00,41.0,27.8,30.18,West,273,5.0,14.0,59,0.00,,---,0.01,VWS V14.01,2013-03-26 21:25:00,
2013-03-26 16:31:00,41.1,27.9,30.18,WNW,294,6.0,14.0,59,0.00,,---,0.01,VWS V14.01,2013-03-26 21:31:00,
2013-03-26 16:36:00,41.1,27.9,30.18,WNW,292,6.0,9.0,59,0.00,,---,0.01,VWS V14.01,2013-03-26 21:36:00,
2013-03-26 16:41:00,41.1,27.5,30.18,West,281,2.0,9.0,58,0.00,,---,0.01,VWS V14.01,2013-03-26 21:41:00,
2013-03-26 16:46:00,41.3,28.1,30.18,WNW,298,6.0,9.0,59,0.00,,---,0.01,VWS V14.01,2013-03-26 21:46:00,
2013-03-26 16:51:00,41.4,27.8,30.18,WNW,302,1.0,9.0,58,0.00,,---,0.01,VWS V14.01,2013-03-26 21:51:00,
2013-03-26 16:56:00,41.7,28.0,30.18,West,264,5.0,9.0,58,0.00,,---,0.01,VWS V14.01,2013-03-26 21:56:00,
2013-03-26 17:01:00,41.6,27.5,30.18,West,279,3.0,10.0,57,0.00,,---,0.01,VWS V14.01,2013-03-26 22:01:00,
2013-03-26 17:06:00,41.7,27.6,30.18,WNW,296,2.0,4.0,57,0.00,,---,0.01,VWS V14.01,2013-03-26 22:06:00,
2013-03-26 17:11:00,41.9,27.8,30.18,NW,310,3.0,5.0,57,0.00,,---,0.01,VWS V14.01,2013-03-26 22:11:00,
2013-03-26 17:16:00,42.0,27.9,30.18,WSW,247,4.0,6.0,57,0.00,,---,0.01,VWS V14.01,2013-03-26 22:16:00,
2013-03-26 17:21:00,41.9,27.8,30.18,North,360,4.0,9.0,57,0.00,,---,0.01,VWS V14.01,2013-03-26 22:21:00,
2013-03-26 17:26:00,41.6,27.5,30.18,NW,309,3.0,9.0,57,0.00,,---,0.01,VWS V14.01,2013-03-26 22:26:00,
2013-03-26 17:31:00,41.3,27.6,30.18,WNW,287,4.0,10.0,58,0.00,,---,0.01,VWS V14.01,2013-03-26 22:31:00,
2013-03-26 17:36:00,41.2,27.6,30.18,West,264,4.0,10.0,58,0.00,,---,0.01,VWS V14.01,2013-03-26 22:36:00,
2013-03-26 17:42:00,41.1,27.5,30.18,NW,309,3.0,10.0,58,0.00,,---,0.01,VWS V14.01,2013-03-26 22:42:00,
2013-03-26 17:47:00,41.1,27.5,30.19,WNW,286,3.0,10.0,58,0.00,,---,0.01,VWS V14.01,2013-03-26 22:47:00,
2013-03-26 17:52:00,41.1,27.0,30.19,NW,306,3.0,10.0,57,0.00,,---,0.01,VWS V14.01,2013-03-26 22:52:00,
2013-03-26 17:57:00,41.1,27.9,30.19,NNW,348,0.0,10.0,59,0.00,,---,0.01,VWS V14.01,2013-03-26 22:57:00,
2013-03-26 18:02:00,41.2,28.0,30.19,NW,324,0.0,1.0,59,0.00,,---,0.01,VWS V14.01,2013-03-26 23:02:00,
2013-03-26 18:07:00,41.3,28.1,30.19,NW,311,3.0,6.0,59,0.00,,---,0.01,VWS V14.01,2013-03-26 23:07:00,
2013-03-26 18:12:00,41.1,27.5,30.19,WNW,294,0.0,7.0,58,0.00,,---,0.01,VWS V14.01,2013-03-26 23:12:00,
2013-03-26 18:17:00,41.1,27.9,30.20,West,266,1.0,7.0,59,0.00,,---,0.01,VWS V14.01,2013-03-26 23:17:00,
2013-03-26 18:22:00,41.1,27.5,30.20,WNW,288,3.0,7.0,58,0.00,,---,0.01,VWS V14.01,2013-03-26 23:22:00,
2013-03-26 18:27:00,41.0,27.4,30.20,NW,312,4.0,7.0,58,0.00,,---,0.01,VWS V14.01,2013-03-26 23:27:00,
2013-03-26 18:32:00,41.0,27.8,30.20,WNW,301,0.0,0.0,59,0.00,,---,0.01,VWS V14.01,2013-03-26 23:32:00,
2013-03-26 18:37:00,40.9,27.3,30.20,WNW,292,0.0,7.0,58,0.00,,---,0.01,VWS V14.01,2013-03-26 23:37:00,
2013-03-26 18:42:00,40.9,27.3,30.20,NW,306,3.0,7.0,58,0.00,,---,0.01,VWS V14.01,2013-03-26 23:42:00,
2013-03-26 18:47:00,40.9,27.3,30.20,WNW,293,0.0,7.0,58,0.00,,---,0.01,VWS V14.01,2013-03-26 23:47:00,
2013-03-26 18:52:00,40.8,27.6,30.20,WNW,284,0.0,10.0,59,0.00,,---,0.01,VWS V14.01,2013-03-26 23:52:00,
2013-03-26 18:57:00,40.7,27.1,30.20,WNW,298,0.0,10.0,58,0.00,,---,0.01,VWS V14.01,2013-03-26 23:57:00,
2013-03-26 19:02:00,40.6,27.4,30.20,WNW,298,0.0,0.0,59,0.00,,---,0.01,VWS V14.01,2013-03-27 00:02:00,
2013-03-26 19:07:00,40.5,27.7,30.20,WNW,298,0.0,0.0,60,0.00,,---,0.01,VWS V14.01,2013-03-27 00:07:00,
2013-03-26 19:12:00,40.4,27.6,30.20,WNW,298,0.0,0.0,60,0.00,,---,0.01,VWS V14.01,2013-03-27 00:12:00,
2013-03-26 19:17:00,40.3,27.5,30.20,WNW,298,0.0,1.0,60,0.00,,---,0.01,VWS V14.01,2013-03-27 00:17:00,
2013-03-26 19:22:00,40.3,27.9,30.20,WNW,298,0.0,1.0,61,0.00,,---,0.01,VWS V14.01,2013-03-27 00:22:00,
2013-03-26 19:27:00,40.2,27.8,30.20,WNW,298,0.0,1.0,61,0.00,,---,0.01,VWS V14.01,2013-03-27 00:27:00,
2013-03-26 19:32:00,40.1,28.1,30.21,WNW,298,0.0,0.0,62,0.00,,---,0.01,VWS V14.01,2013-03-27 00:32:00,
2013-03-26 19:37:00,39.9,28.3,30.21,WNW,298,0.0,0.0,63,0.00,,---,0.01,VWS V14.01,2013-03-27 00:37:00,
2013-03-26 19:42:00,39.8,28.2,30.21,WNW,298,0.0,0.0,63,0.00,,---,0.01,VWS V14.01,2013-03-27 00:42:00,
2013-03-26 19:47:00,39.7,28.5,30.21,WNW,298,0.0,0.0,64,0.00,,---,0.01,VWS V14.01,2013-03-27 00:47:00,
2013-03-26 19:52:00,39.5,28.7,30.21,WNW,298,0.0,0.0,65,0.00,,---,0.01,VWS V14.01,2013-03-27 00:52:00,
2013-03-26 19:57:00,39.3,28.5,30.21,WNW,298,0.0,0.0,65,0.00,,---,0.01,VWS V14.01,2013-03-27 00:57:00,
2013-03-26 20:02:00,39.1,28.0,30.21,WNW,298,0.0,0.0,64,0.00,,---,0.01,VWS V14.01,2013-03-27 01:02:00,
2013-03-26 20:07:00,38.9,28.1,30.21,WNW,298,0.0,0.0,65,0.00,,---,0.01,VWS V14.01,2013-03-27 01:07:00,
2013-03-26 20:12:00,38.6,27.9,30.21,WNW,298,0.0,0.0,65,0.00,,---,0.01,VWS V14.01,2013-03-27 01:12:00,
2013-03-26 20:17:00,38.4,27.7,30.21,WNW,298,0.0,0.0,65,0.00,,---,0.01,VWS V14.01,2013-03-27 01:17:00,
2013-03-26 20:22:00,38.2,27.9,30.21,WNW,298,0.0,0.0,66,0.00,,---,0.01,VWS V14.01,2013-03-27 01:22:00,
2013-03-26 20:27:00,37.8,27.5,30.21,WNW,298,0.0,0.0,66,0.00,,---,0.01,VWS V14.01,2013-03-27 01:27:00,
2013-03-26 20:32:00,37.4,27.1,30.21,WNW,298,0.0,0.0,66,0.00,,---,0.01,VWS V14.01,2013-03-27 01:32:00,
2013-03-26 20:37:00,37.1,27.2,30.21,WNW,298,0.0,0.0,67,0.00,,---,0.01,VWS V14.01,2013-03-27 01:37:00,
2013-03-26 20:42:00,36.7,26.8,30.21,WNW,298,0.0,0.0,67,0.00,,---,0.01,VWS V14.01,2013-03-27 01:42:00,
2013-03-26 20:47:00,36.3,27.1,30.22,WNW,298,0.0,0.0,69,0.00,,---,0.01,VWS V14.01,2013-03-27 01:47:00,
2013-03-26 20:52:00,35.9,27.1,30.22,WNW,298,0.0,0.0,70,0.00,,---,0.01,VWS V14.01,2013-03-27 01:52:00,
2013-03-26 20:57:00,35.3,27.5,30.22,WNW,298,0.0,0.0,73,0.00,,---,0.01,VWS V14.01,2013-03-27 01:57:00,
2013-03-26 21:02:00,34.7,27.3,30.22,WNW,298,0.0,0.0,74,0.00,,---,0.01,VWS V14.01,2013-03-27 02:02:00,
2013-03-26 21:07:00,34.4,27.0,30.22,WNW,298,0.0,0.0,74,0.00,,---,0.01,VWS V14.01,2013-03-27 02:07:00,
2013-03-26 21:12:00,34.2,27.1,30.22,WNW,298,0.0,0.0,75,0.00,,---,0.01,VWS V14.01,2013-03-27 02:12:00,
2013-03-26 21:17:00,34.0,26.9,30.23,WNW,298,0.0,0.0,75,0.00,,---,0.01,VWS V14.01,2013-03-27 02:17:00,
2013-03-26 21:22:00,33.8,26.7,30.23,WNW,298,0.0,0.0,75,0.00,,---,0.01,VWS V14.01,2013-03-27 02:22:00,
2013-03-26 21:27:00,33.5,26.8,30.23,WNW,298,0.0,0.0,76,0.00,,---,0.01,VWS V14.01,2013-03-27 02:27:00,
2013-03-26 21:32:00,33.2,26.8,30.23,WNW,298,0.0,0.0,77,0.00,,---,0.01,VWS V14.01,2013-03-27 02:32:00,
2013-03-26 21:37:00,33.0,26.6,30.23,WNW,298,0.0,0.0,77,0.00,,---,0.01,VWS V14.01,2013-03-27 02:37:00,
2013-03-26 21:42:00,32.7,26.3,30.23,WNW,298,0.0,0.0,77,0.00,,---,0.01,VWS V14.01,2013-03-27 02:42:00,
2013-03-26 21:47:00,32.6,26.8,30.24,WNW,298,0.0,0.0,79,0.00,,---,0.01,VWS V14.01,2013-03-27 02:47:00,
2013-03-26 21:52:00,32.6,26.5,30.24,WNW,298,0.0,0.0,78,0.00,,---,0.01,VWS V14.01,2013-03-27 02:52:00,
2013-03-26 21:57:00,32.4,26.3,30.24,WNW,298,0.0,0.0,78,0.00,,---,0.01,VWS V14.01,2013-03-27 02:57:00,
2013-03-26 22:02:00,32.3,26.5,30.24,WNW,298,0.0,0.0,79,0.00,,---,0.01,VWS V14.01,2013-03-27 03:02:00,
2013-03-26 22:07:00,32.1,26.3,30.24,WNW,298,0.0,0.0,79,0.00,,---,0.01,VWS V14.01,2013-03-27 03:07:00,
2013-03-26 22:12:00,32.0,26.2,30.24,WNW,298,0.0,0.0,79,0.00,,---,0.01,VWS V14.01,2013-03-27 03:12:00,
2013-03-26 22:17:00,31.7,25.9,30.24,WNW,298,0.0,0.0,79,0.00,,---,0.01,VWS V14.01,2013-03-27 03:17:00,
2013-03-26 22:22:00,31.4,26.0,30.24,WNW,298,0.0,0.0,80,0.00,,---,0.01,VWS V14.01,2013-03-27 03:22:00,
2013-03-26 22:27:00,31.2,26.1,30.24,WNW,298,0.0,0.0,81,0.00,,---,0.01,VWS V14.01,2013-03-27 03:27:00,
2013-03-26 22:32:00,31.2,26.4,30.24,WNW,298,0.0,0.0,82,0.00,,---,0.01,VWS V14.01,2013-03-27 03:32:00,
2013-03-26 22:37:00,31.3,26.2,30.24,WNW,298,0.0,0.0,81,0.00,,---,0.01,VWS V14.01,2013-03-27 03:37:00,
2013-03-26 22:42:00,31.5,26.0,30.24,WNW,298,0.0,0.0,80,0.00,,---,0.01,VWS V14.01,2013-03-27 03:42:00,
2013-03-26 22:47:00,31.7,26.2,30.24,WNW,298,0.0,0.0,80,0.00,,---,0.01,VWS V14.01,2013-03-27 03:47:00,
2013-03-26 22:52:00,31.7,25.9,30.24,WNW,298,0.0,0.0,79,0.00,,---,0.01,VWS V14.01,2013-03-27 03:52:00,
2013-03-26 22:57:00,31.6,25.9,30.24,WNW,298,0.0,0.0,79,0.00,,---,0.01,VWS V14.01,2013-03-27 03:57:00,
2013-03-26 23:00:00,31.5,25.8,30.24,WNW,298,0.0,0.0,79,0.00,,---,0.01,VWS V14.01,2013-03-27 04:00:00,
2013-03-26 23:05:00,31.2,26.1,30.24,WNW,298,0.0,0.0,81,0.00,,---,0.01,VWS V14.01,2013-03-27 04:05:00,
2013-03-26 23:10:00,30.9,25.8,30.24,WNW,298,0.0,0.0,81,0.00,,---,0.01,VWS V14.01,2013-03-27 04:10:00,
2013-03-26 23:15:00,30.7,25.6,30.24,WNW,298,0.0,0.0,81,0.00,,---,0.01,VWS V14.01,2013-03-27 04:15:00,
2013-03-26 23:20:00,30.5,25.7,30.24,WNW,298,0.0,0.0,82,0.00,,---,0.01,VWS V14.01,2013-03-27 04:20:00,
2013-03-26 23:25:00,30.3,25.5,30.24,WNW,298,0.0,0.0,82,0.00,,---,0.01,VWS V14.01,2013-03-27 04:25:00,
2013-03-26 23:30:00,30.2,25.7,30.24,WNW,298,0.0,0.0,83,0.00,,---,0.01,VWS V14.01,2013-03-27 04:30:00,
2013-03-26 23:35:00,29.9,25.1,30.25,WNW,298,0.0,1.0,82,0.00,,---,0.01,VWS V14.01,2013-03-27 04:35:00,
2013-03-26 23:40:00,29.7,25.2,30.25,WNW,298,0.0,1.0,83,0.00,,---,0.01,VWS V14.01,2013-03-27 04:40:00,
2013-03-26 23:45:00,29.5,25.0,30.25,WNW,298,0.0,1.0,83,0.00,,---,0.01,VWS V14.01,2013-03-27 04:45:00,
2013-03-26 23:50:00,29.3,24.8,30.25,WNW,298,0.0,1.0,83,0.00,,---,0.01,VWS V14.01,2013-03-27 04:50:00,
2013-03-26 23:55:00,29.2,25.0,30.25,WNW,298,0.0,1.0,84,0.00,,---,0.01,VWS V14.01,2013-03-27 04:55:00,